Regional Weather Roundup
Issued by NWS Grand Forks, ND

Home | Current Version | Previous Version | Graphics & Text | Print | Product List | Glossary On
Versions: 1 2 3 4 5 6 7 8 9 10 11 12 13 14 15 16 17 18 19 20 21 22 23 24 25 26 27 28 29 30 31 32 33 34 35 36 37 38 39 40 41 42 43 44 45 46 47 48 49 50
000
ASUS43 KFGF 051710
RWRFGF
PRAIRIE TO PINES  WEATHER ROUNDUP
NATIONAL WEATHER SERVICE EASTERN NORTH DAKOTA/GRAND FORKS ND
1200 PM CDT TUE MAY 05 2015

 **SATELLITE DATA USED TO AUGMENT SKY COVER AT AUTOMATED STATIONS**
 *****  WEATHER ACROSS EASTERN NORTH DAKOTA  *****

CITY           SKY/WX    TMP DP  RH WIND       PRES   REMARKS
GRAND FORKS    MOSUNNY   71  24  17 S18G26    30.11F
GRAND FRKS AFB SUNNY     71  27  19 S18       30.11F
GRAND FRKS NWS   N/A     70 N/A N/A SE16        N/A
DEVILS LAKE    PTSUNNY   70  32  24 S22G30    30.07F
FARGO          SUNNY     72  22  15 SE12G26   30.12F
WAHPETON ARPT  SUNNY     72  18  13 SE17      30.12F
$$

 ***** WEATHER ACROSS CENTRAL AND WESTERN NORTH DAKOTA  *****

CITY           SKY/WX    TMP DP  RH WIND       PRES   REMARKS
BISMARCK       CLOUDY    68  33  27 S23G32    30.02F
MINOT          MOSUNNY   70  33  25 S22G32    29.97F
JAMESTOWN      SUNNY     71  28  20 S20G32    30.07F
MINOT AFB      MOSUNNY   73  34  24 S25       29.95F
GARRISON         N/A     70  37  29 S23G32    29.98F
WILLISTON      SUNNY     72  35  25 S16G23    29.88F
DICKINSON      SUNNY     68  41  37 S24G32    29.92S
HETTINGER      SUNNY     65  43  44 SE23G30   29.96S
$$

 *****  OTHER AIRPORT OBSERVATIONS IN OUR AREA  *****

CITY           SKY/WX    TMP DP  RH WIND       PRES   REMARKS
WALHALLA       FAIR      70  28  21 S15G25    30.09F
GRAFTON AIRPOR FAIR      70  28  21 S20G28    30.12F
VALLEY CITY AR FAIR      68  30  24 SE17G25   30.11F
CANDO          PTSUNNY   70  32  24 S28G36    30.06F
CAVALIER APRT  FAIR      70  27  19 S21G30    30.09F
GWINNER        SUNNY     72  32  23 SE15      30.11F
SHEYENNE NWR     N/A     72  26  18 SE12      29.95S
ROLLA          NOT AVBL
 ***** THE ABOVE OBSERVATIONS ARE NON NWS ARE NOT QUALITY
       CONTROLLED AND MAY MIS-REPORT RAIN FOR SNOW...
$$

  *****  WEATHER ACROSS NORTHERN MINNESOTA  *****

CITY           SKY/WX    TMP DP  RH WIND       PRES   REMARKS
FLAG ISLAND    SUNNY     59  32  36 SE8       30.17F
WARROAD        SUNNY     70  34  26 SE18G25   30.16F
ROSEAU         SUNNY     72  21  15 S18G25    30.15F
HALLOCK        SUNNY     72  18  13 S21G26    30.11F
THF RVR FALLS  SUNNY     70  23  17 S15       30.15F
BAUDETTE       SUNNY     69  25  19 VRB7      30.17F
WASKISH        SUNNY     70  30  23 SE10G20   30.18F
CROOKSTON      SUNNY     72  23  16 S18G24    30.14F
$$
  *****  WEATHER ACROSS CENTRAL AND WEST MINNESOTA  *****

CITY           SKY/WX    TMP DP  RH WIND       PRES   REMARKS
FOSSTON        SUNNY     70  19  14 SE14      30.16F
BEMIDJI        SUNNY     67  23  18 SE16G23   30.18F
PARK RAPIDS    SUNNY     69  21  16 SE14G22   30.17F
ELBOW LAKE     FAIR      69  30  23 SE16G24   30.13F
WADENA         SUNNY     68  32  26 SE14G24   30.16F
DETROIT LAKES  SUNNY     68  27  21 SE17      30.17S
MOORHEAD       SUNNY     72  21  15 SE16G25   30.13F
FERGUS FALLS   SUNNY     70  28  21 SE15G22   30.14F
MORRIS MN      SUNNY     73  32  21 SE15G25   30.11F
STAPLES        SUNNY     68  27  21 SE9G20    30.17F
$$
  *****  WEATHER ELSEWHERE ACROSS MINNESOTA  *****

CITY           SKY/WX    TMP DP  RH WIND       PRES   REMARKS
DULUTH         SUNNY     66  28  24 E13       30.25F
INTRNTL FALLS  SUNNY     68  24  19 VRB7G18   30.20F
ELY            SUNNY     66  19  16 S13       30.24F
CLOQUET        SUNNY     66  25  20 SE9       30.24F
WHEATON        SUNNY     70  28  21 E18G25    30.12F
BRAINERD       SUNNY     67  35  30 E9G17     30.20F
HIBBING        SUNNY     69  22  16 SE12      30.23F
ALEXANDRIA     SUNNY     70  30  22 SE16G24   30.16F
SAINT CLOUD    SUNNY     68  43  40 SE13G21   30.17F
MINNEAPOLIS    MOSUNNY   68  44  42 E17G25    30.19F
$$

  *****  WEATHER ACROSS SOUTH DAKOTA  *****

CITY           SKY/WX    TMP DP  RH WIND       PRES   REMARKS
SIOUX FALLS    CLOUDY    67  51  56 SE15      30.07F
BROOKINGS      MOSUNNY   70  39  32 E22G28    30.08F
WATERTOWN      SUNNY     69  32  25 E16G30    30.10F
HURON          SUNNY     73  37  27 SE14G22   30.04F
SISSETON         N/A     72  26  18 SE16G25   30.09F
ABERDEEN       SUNNY     73  26  17 SE18G29   30.06F
MITCHELL       PTSUNNY   69  40  34 SE14      30.06F
PIERRE         MOSUNNY   69  40  34 SE18G26   30.01F
MOBRIDGE       SUNNY     71  33  24 SE21      30.00F
RAPID CITY     CLOUDY    59  44  57 SE15      29.97F
$$

  *****  SOME WEATHER IN NEARBY STATES *****

CITY           SKY/WX    TMP DP  RH WIND       PRES   REMARKS
GLASGOW MT     SUNNY     67  41  38 SE14      29.79F
GREAT FALLS MT MOSUNNY   65  35  33 VRB3      29.78S
CHEYENNE WY    FOG       46  45  96 S12       29.98F VSB 1/2
SCOTTSBLUFF NE CLOUDY    59  48  67 SE6       29.97F
OMAHA NE       CLOUDY    71  60  68 S13       30.08F
DES MOINES IA  CLOUDY    73  61  65 S12       30.12R
DAVENPORT IA   CLOUDY    60  57  89 NE9       30.19S FOG
CHICAGO IL     FOG       50  49  96 N10       30.24S VSB 1/2
EAU CLAIRE WI  MOSUNNY   68  28  22 SE12      30.24S
LA CROSSE WI   LGT RAIN  55  51  86 SE7       30.25F
$$

  *****  SOME NATIONAL WEATHER *****

CITY           SKY/WX    TMP DP  RH WIND       PRES   REMARKS
LA GUARDIA NY  CLOUDY    77  54  44 N7        30.20F
RALEIGH NC     MOSUNNY   78  59  51 SW10      30.32F
ATLANTA GA     MOSUNNY   76  54  46 VRB7      30.32F
NEW ORLEANS LA MOSUNNY   81  62  52 SE10G25   30.18S
OKLAHOMA CITY  PTSUNNY   72  57  60 SE22G29   30.03S
ALBUQUERQUE NM PTSUNNY   58  40  51 SW17      29.96S
SALT LAKE CITY CLOUDY    63  48  58 NW9       29.85F
LOS ANGELES CA CLOUDY    59  50  72 SW7       30.00S
BOISE ID       SUNNY     62  36  37 NW13      29.88R
SEATTLE WA     MOSUNNY   52  43  71 SW16      30.05R
$$

*** WEATHER ACROSS MANITOBA...SASKATCHEWAN AND ONTARIO ***
                ***ONTARIO***

CITY           SKY/WX    TMP DP  RH WIND       PRES   REMARKS
GERALDTON      MOSUNNY   59  28  31 W6        30.27F
THUNDER BAY    MOSUNNY   68  27  21 S18       30.27F
SIOUX LOOKOUT  SUNNY     66  30  26 SW10G17   30.20F
TORONTO        CLOUDY    59  50  72 E9        30.32S
BIG TROUT LK   SUNNY     45  19  36 W9G17     30.19F
PICKLE LAKE    PTSUNNY   52  28  40 W3        30.22F
DRYDEN         SUNNY     66  28  24 S12G20    30.20F
KENORA         SUNNY     64  28  25 SW15      30.19F
$$
                *** MANITOBA***

CITY           SKY/WX    TMP DP  RH WIND       PRES   REMARKS
BRANDON        PTSUNNY   72  34  25 S20G29    30.00F
DAUPHIN        PTSUNNY   72  34  25 S18G28    29.96F
ISLAND LAKE    CLOUDY    43  21  42 S5        30.20S
PILOT MOUND      N/A     70  28  21 S28G35      N/A
THE PAS        CLOUDY    37  36  93 E10G17    30.11F
THOMPSON       MOSUNNY   43  18  36 VRB2      30.20S
WINNIPEG       MOSUNNY   72  27  18 S29       30.10F
LYNN LAKE      SUNNY     41  16  36 N8        30.17F
CHURCHILL      MOSUNNY   23  16  74 NW17G24   30.19R WCI   9
GILLAM         MOSUNNY   37  16  41 W10       30.20S
$$
                ***SASKATCHEWAN***

CITY           SKY/WX    TMP DP  RH WIND       PRES   REMARKS
ESTEVAN        MOSUNNY   70  37  30 S20G25    29.90S
KINDERSLEY     PTSUNNY   66  39  37 VRB2      29.71R
LLOYDMINSTER   MOSUNNY   55  39  54 E24G32    29.75S
PRINCE ALBERT  MOSUNNY   54  37  54 E23G30    29.89F
REGINA         MOSUNNY   66  37  34 SE25      29.82F
YORKTON        PTSUNNY   66  32  28 S16G24    29.89F
N. BATTLEFORD  SUNNY     57  41  54 E25G36    29.78F
LA RONGE       MOSUNNY   46  23  39 NE16G24   30.07F
SASKATOON      MOSUNNY   61  41  48 E16G22    29.79F
SWIFT CURRENT  SUNNY     70  41  35 SW20G25   29.73S
$$
NOTE: THESE ARE AUTOMATED STATIONS WITH LIMITED QUALITY CONTROL
      "FAIR" INDICATES FEW OR NO CLOUDS BELOW 12,000 FEET WITH NO
      SIGNIFICANT WEATHER AND/OR OBSTRUCTIONS TO VISIBILITY.
      SKY/WX - SKY CONDITION AND SIGNIFICANT WEATHER.
      TMP - AIR TEMPERATURE.    DP   - DEWPOINT TEMPERATURE.
      RH  - RELATIVE HUMIDITY.  PRES - PRESSURE.
      HX  - HEAT INDEX.         WCI  - WIND CHILL INDEX.
$



USA.gov is the U.S. government's official web portal to all federal, state and local government web resources and services.